Station Historical Data
Daily Summary for October 11, 2017 Units:  English    Metric   Both
« Previous Day
Next Day »
Daily Weekly Monthly Yearly Custom
  High: Low: Average:
Temperature: 62.1 °F 48.8 °F 55.3 °F
Dew Point: 37.6 °F 21.5 °F 29.4 °F
Humidity: 52 % 23 % 37 %
Wind Speed: 8.0 mph 0.0 mph 1.1 mph
Wind Gust: 14.0 mph - -
Wind:- - SSW
Pressure: 30.03 in 29.87 in -
Precipitation: 0.00 in    
Historical Graphs
 
 
Tabular Data for October 11, 2017
Time Temperature Dew Point Pressure Wind Wind Speed Wind Gust Humidity Rainfall Rate (Hourly) solar
00:02 56.2 °F 28.9 °F 29.90 in Calm   8.0 mph 35 % 0.00 in 0.00 W/m2
00:07 56.2 °F 28.9 °F 29.90 in ESE 1.0 mph 5.0 mph 35 % 0.00 in 0.00 W/m2
00:12 56.1 °F 28.8 °F 29.90 in ESE 5.0 mph 7.0 mph 35 % 0.00 in 0.00 W/m2
00:17 56.0 °F 28.8 °F 29.90 in Calm   6.0 mph 35 % 0.00 in 0.00 W/m2
00:22 56.0 °F 28.8 °F 29.90 in Calm   9.0 mph 35 % 0.00 in 0.00 W/m2
00:27 55.9 °F 28.7 °F 29.90 in ESE 5.0 mph 8.0 mph 35 % 0.00 in 0.00 W/m2
00:33 55.8 °F 28.6 °F 29.90 in ESE 1.0 mph 11.0 mph 35 % 0.00 in 0.00 W/m2
00:38 55.8 °F 29.3 °F 29.90 in East 4.0 mph 9.0 mph 36 % 0.00 in 0.00 W/m2
00:43 55.7 °F 28.5 °F 29.90 in East 5.0 mph 6.0 mph 35 % 0.00 in 0.00 W/m2
00:48 55.7 °F 28.5 °F 29.90 in East 4.0 mph 5.0 mph 35 % 0.00 in 0.00 W/m2
00:53 55.7 °F 29.2 °F 29.90 in Calm   5.0 mph 36 % 0.00 in 0.00 W/m2
00:58 55.6 °F 29.1 °F 29.90 in ESE 4.0 mph 4.0 mph 36 % 0.00 in 0.00 W/m2
01:03 55.5 °F 29.0 °F 29.90 in ESE 1.0 mph 5.0 mph 36 % 0.00 in 0.00 W/m2
01:08 55.5 °F 29.0 °F 29.90 in ESE 2.0 mph 5.0 mph 36 % 0.00 in 0.00 W/m2
01:13 55.4 °F 28.9 °F 29.90 in ESE 5.0 mph 6.0 mph 36 % 0.00 in 0.00 W/m2
01:18 55.3 °F 28.8 °F 29.90 in Calm   6.0 mph 36 % 0.00 in 0.00 W/m2
01:23 55.2 °F 28.7 °F 29.90 in Calm   7.0 mph 36 % 0.00 in 0.00 W/m2
01:33 55.0 °F 28.6 °F 29.90 in ESE 1.0 mph 6.0 mph 36 % 0.00 in 0.00 W/m2
01:38 54.9 °F 28.5 °F 29.90 in Calm   5.0 mph 36 % 0.00 in 0.00 W/m2
01:43 54.8 °F 29.0 °F 29.90 in Calm   6.0 mph 37 % 0.00 in 0.00 W/m2
01:48 54.7 °F 29.0 °F 29.90 in ESE 1.0 mph 6.0 mph 37 % 0.00 in 0.00 W/m2
01:53 54.6 °F 28.9 °F 29.90 in Calm   5.0 mph 37 % 0.00 in 0.00 W/m2
01:58 54.5 °F 28.8 °F 29.90 in Calm   5.0 mph 37 % 0.00 in 0.00 W/m2
02:03 54.4 °F 28.7 °F 29.90 in ESE 4.0 mph 5.0 mph 37 % 0.00 in 0.00 W/m2
02:08 54.4 °F 28.7 °F 29.90 in Calm   4.0 mph 37 % 0.00 in 0.00 W/m2
02:13 54.3 °F 28.6 °F 29.90 in Calm   7.0 mph 37 % 0.00 in 0.00 W/m2
02:15 54.2 °F 28.5 °F 29.90 in ESE 1.0 mph 7.0 mph 37 % 0.00 in 0.00 W/m2
02:20 54.2 °F 28.5 °F 29.90 in Calm   11.0 mph 37 % 0.00 in 0.00 W/m2
02:25 54.1 °F 28.4 °F 29.90 in ESE 6.0 mph 8.0 mph 37 % 0.00 in 0.00 W/m2
02:30 54.1 °F 29.1 °F 29.90 in Calm   7.0 mph 38 % 0.00 in 0.00 W/m2
02:35 54.1 °F 28.4 °F 29.90 in ESE 7.0 mph 9.0 mph 37 % 0.00 in 0.00 W/m2
02:40 54.0 °F 28.3 °F 29.90 in ESE 6.0 mph 8.0 mph 37 % 0.00 in 0.00 W/m2
02:45 54.0 °F 29.0 °F 29.90 in Calm   6.0 mph 38 % 0.00 in 0.00 W/m2
02:50 53.9 °F 28.9 °F 29.90 in East 1.0 mph 12.0 mph 38 % 0.00 in 0.00 W/m2
02:55 53.8 °F 28.2 °F 29.89 in ESE 6.0 mph 11.0 mph 37 % 0.00 in 0.00 W/m2
03:00 53.7 °F 28.1 °F 29.89 in Calm   9.0 mph 37 % 0.00 in 0.00 W/m2
03:05 53.7 °F 28.7 °F 29.90 in Calm   8.0 mph 38 % 0.00 in 0.00 W/m2
03:15 53.5 °F 28.5 °F 29.89 in ESE 6.0 mph 8.0 mph 38 % 0.00 in 0.00 W/m2
03:20 53.5 °F 28.5 °F 29.89 in ESE 6.0 mph 8.0 mph 38 % 0.00 in 0.00 W/m2
03:25 53.5 °F 28.5 °F 29.89 in ESE 5.0 mph 8.0 mph 38 % 0.00 in 0.00 W/m2
03:35 53.4 °F 29.1 °F 29.89 in ESE 1.0 mph 6.0 mph 39 % 0.00 in 0.00 W/m2
03:40 53.3 °F 28.4 °F 29.89 in Calm   6.0 mph 38 % 0.00 in 0.00 W/m2
03:45 53.3 °F 29.0 °F 29.89 in Calm   5.0 mph 39 % 0.00 in 0.00 W/m2
03:50 53.3 °F 29.0 °F 29.89 in ESE 5.0 mph 6.0 mph 39 % 0.00 in 0.00 W/m2
03:55 53.3 °F 29.0 °F 29.89 in Calm   5.0 mph 39 % 0.00 in 0.00 W/m2
04:02 53.3 °F 29.0 °F 29.89 in ESE 2.0 mph 7.0 mph 39 % 0.00 in 0.00 W/m2
04:07 53.3 °F 29.0 °F 29.88 in Calm   5.0 mph 39 % 0.00 in 0.00 W/m2
04:12 53.2 °F 28.9 °F 29.88 in Calm   5.0 mph 39 % 0.00 in 0.00 W/m2
04:17 53.2 °F 28.9 °F 29.88 in ESE 1.0 mph 6.0 mph 39 % 0.00 in 0.00 W/m2
04:22 53.2 °F 28.9 °F 29.88 in Calm   7.0 mph 39 % 0.00 in 0.00 W/m2
04:27 53.2 °F 28.9 °F 29.88 in ESE 2.0 mph 6.0 mph 39 % 0.00 in 0.00 W/m2
04:32 53.2 °F 28.9 °F 29.88 in ESE 2.0 mph 11.0 mph 39 % 0.00 in 0.00 W/m2
04:37 53.2 °F 28.9 °F 29.88 in Calm   6.0 mph 39 % 0.00 in 0.00 W/m2
04:42 53.2 °F 28.9 °F 29.88 in ESE 2.0 mph 8.0 mph 39 % 0.00 in 0.00 W/m2
04:47 53.2 °F 28.9 °F 29.88 in ESE 1.0 mph 7.0 mph 39 % 0.00 in 0.00 W/m2
04:52 53.1 °F 28.8 °F 29.88 in Calm   5.0 mph 39 % 0.00 in 0.00 W/m2
04:57 53.1 °F 28.8 °F 29.88 in Calm   6.0 mph 39 % 0.00 in 0.00 W/m2
05:02 53.0 °F 28.7 °F 29.88 in Calm   4.0 mph 39 % 0.00 in 0.00 W/m2
05:07 53.0 °F 28.7 °F 29.88 in East 5.0 mph 5.0 mph 39 % 0.00 in 0.00 W/m2
05:12 52.9 °F 29.2 °F 29.88 in Calm   7.0 mph 40 % 0.00 in 0.00 W/m2
05:17 52.8 °F 29.2 °F 29.88 in Calm   6.0 mph 40 % 0.00 in 0.00 W/m2
05:22 52.7 °F 29.1 °F 29.88 in ESE 6.0 mph 8.0 mph 40 % 0.00 in 0.00 W/m2
05:27 52.6 °F 29.0 °F 29.87 in ESE 2.0 mph 9.0 mph 40 % 0.00 in 0.00 W/m2
05:32 52.5 °F 28.9 °F 29.87 in ESE 2.0 mph 14.0 mph 40 % 0.00 in 0.00 W/m2
05:37 52.4 °F 28.8 °F 29.87 in Calm   7.0 mph 40 % 0.00 in 0.00 W/m2
05:42 52.3 °F 28.7 °F 29.87 in Calm   6.0 mph 40 % 0.00 in 0.00 W/m2
05:47 52.3 °F 28.7 °F 29.88 in ESE 4.0 mph 5.0 mph 40 % 0.00 in 0.00 W/m2
05:52 52.3 °F 28.7 °F 29.88 in Calm   5.0 mph 40 % 0.00 in 0.00 W/m2
05:57 52.2 °F 28.6 °F 29.88 in Calm   2.0 mph 40 % 0.00 in 0.00 W/m2
06:02 52.2 °F 28.6 °F 29.88 in Calm   4.0 mph 40 % 0.00 in 0.00 W/m2
06:07 52.2 °F 29.2 °F 29.88 in Calm   4.0 mph 41 % 0.00 in 0.00 W/m2
06:12 52.1 °F 29.1 °F 29.88 in Calm   7.0 mph 41 % 0.00 in 0.00 W/m2
06:17 52.2 °F 29.2 °F 29.88 in Calm   4.0 mph 41 % 0.00 in 0.00 W/m2
06:22 52.1 °F 29.1 °F 29.89 in Calm     41 % 0.00 in 0.00 W/m2
06:27 52.1 °F 29.1 °F 29.89 in Calm     41 % 0.00 in 0.00 W/m2
06:32 52.1 °F 29.1 °F 29.89 in Calm     41 % 0.00 in 0.00 W/m2
06:37 52.1 °F 29.1 °F 29.89 in Calm   1.0 mph 41 % 0.00 in 0.00 W/m2
06:38 52.0 °F 29.0 °F 29.89 in Calm   1.0 mph 41 % 0.00 in 0.00 W/m2
06:43 52.0 °F 29.0 °F 29.89 in Calm     41 % 0.00 in 0.00 W/m2
06:53 51.8 °F 29.5 °F 29.89 in Calm     42 % 0.00 in 0.00 W/m2
06:58 51.7 °F 29.4 °F 29.89 in Calm     42 % 0.00 in 0.00 W/m2
07:03 51.6 °F 29.3 °F 29.90 in Calm     42 % 0.00 in 0.00 W/m2
07:08 51.5 °F 29.2 °F 29.89 in Calm   4.0 mph 42 % 0.00 in 5.00 W/m2
07:13 51.4 °F 29.1 °F 29.89 in ESE 2.0 mph 5.0 mph 42 % 0.00 in 9.00 W/m2
07:18 51.4 °F 29.1 °F 29.89 in ESE 1.0 mph 4.0 mph 42 % 0.00 in 11.00 W/m2
07:23 51.3 °F 29.0 °F 29.90 in Calm     42 % 0.00 in 18.00 W/m2
07:28 51.2 °F 29.5 °F 29.90 in Calm   5.0 mph 43 % 0.00 in 23.00 W/m2
07:33 51.1 °F 29.4 °F 29.90 in Calm   4.0 mph 43 % 0.00 in 28.00 W/m2
07:38 51.1 °F 29.4 °F 29.90 in Calm   2.0 mph 43 % 0.00 in 32.00 W/m2
07:43 51.1 °F 29.4 °F 29.90 in ESE 2.0 mph 5.0 mph 43 % 0.00 in 35.00 W/m2
07:48 51.1 °F 29.4 °F 29.91 in ESE 1.0 mph 5.0 mph 43 % 0.00 in 40.00 W/m2
07:53 51.2 °F 29.5 °F 29.91 in ESE 1.0 mph 5.0 mph 43 % 0.00 in 49.00 W/m2
07:58 51.2 °F 30.0 °F 29.91 in Calm   4.0 mph 44 % 0.00 in 58.00 W/m2
08:03 51.3 °F 30.1 °F 29.91 in Calm   4.0 mph 44 % 0.00 in 65.00 W/m2
08:08 51.3 °F 30.1 °F 29.91 in Calm     44 % 0.00 in 67.00 W/m2
08:13 51.4 °F 30.2 °F 29.92 in Calm     44 % 0.00 in 81.00 W/m2
08:18 51.5 °F 30.3 °F 29.92 in Calm     44 % 0.00 in 88.00 W/m2
08:23 51.6 °F 31.0 °F 29.92 in Calm     45 % 0.00 in 97.00 W/m2
08:28 51.7 °F 31.1 °F 29.92 in Calm   1.0 mph 45 % 0.00 in 111.00 W/m2
08:33 51.7 °F 31.1 °F 29.92 in Calm     45 % 0.00 in 118.00 W/m2
08:38 51.8 °F 31.7 °F 29.93 in Calm   4.0 mph 46 % 0.00 in 130.00 W/m2
08:43 51.9 °F 31.8 °F 29.93 in Calm   2.0 mph 46 % 0.00 in 104.00 W/m2
08:48 52.0 °F 31.9 °F 29.93 in Calm     46 % 0.00 in 144.00 W/m2
08:54 52.2 °F 32.6 °F 29.93 in Calm     47 % 0.00 in 158.00 W/m2
08:59 52.2 °F 33.1 °F 29.93 in Calm     48 % 0.00 in 167.00 W/m2
09:04 52.4 °F 33.3 °F 29.94 in Calm     48 % 0.00 in 172.00 W/m2
09:09 52.5 °F 33.4 °F 29.93 in Calm     48 % 0.00 in 185.00 W/m2
09:14 52.6 °F 34.0 °F 29.93 in Calm     49 % 0.00 in 193.00 W/m2
09:19 52.8 °F 34.2 °F 29.94 in Calm     49 % 0.00 in 207.00 W/m2
09:24 52.9 °F 34.3 °F 29.94 in Calm     49 % 0.00 in 211.00 W/m2
09:29 53.0 °F 34.4 °F 29.94 in Calm     49 % 0.00 in 230.00 W/m2
09:34 53.2 °F 34.5 °F 29.94 in Calm     49 % 0.00 in 257.00 W/m2
09:39 53.4 °F 34.7 °F 29.94 in Calm     49 % 0.00 in 297.00 W/m2
09:44 53.6 °F 34.9 °F 29.94 in Calm     49 % 0.00 in 269.00 W/m2
09:49 53.9 °F 35.7 °F 29.95 in Calm     50 % 0.00 in 323.00 W/m2
09:54 54.1 °F 35.9 °F 29.95 in Calm     50 % 0.00 in 359.00 W/m2
09:59 54.4 °F 35.7 °F 29.95 in Calm     49 % 0.00 in 348.00 W/m2
10:04 54.9 °F 37.6 °F 29.95 in Calm     52 % 0.00 in 373.00 W/m2
10:09 55.6 °F 35.7 °F 29.95 in Calm     47 % 0.00 in 338.00 W/m2
10:11 55.7 °F 36.3 °F 29.95 in Calm     48 % 0.00 in 345.00 W/m2
10:16 56.0 °F 36.1 °F 29.95 in Calm     47 % 0.00 in 371.00 W/m2
10:21 56.2 °F 36.3 °F 29.95 in Calm     47 % 0.00 in 403.00 W/m2
10:26 56.5 °F 36.5 °F 29.95 in Calm     47 % 0.00 in 431.00 W/m2
10:31 56.8 °F 35.1 °F 29.96 in Calm     44 % 0.00 in 455.00 W/m2
10:42 57.1 °F 36.5 °F 29.96 in Calm     46 % 0.00 in 418.00 W/m2
10:47 57.1 °F 36.5 °F 29.96 in Calm     46 % 0.00 in 436.00 W/m2
10:52 57.2 °F 36.6 °F 29.96 in Calm     46 % 0.00 in 497.00 W/m2
10:57 57.3 °F 35.6 °F 29.96 in Calm     44 % 0.00 in 469.00 W/m2
11:02 57.6 °F 35.3 °F 29.96 in Calm     43 % 0.00 in 468.00 W/m2
11:07 57.8 °F 34.9 °F 29.96 in Calm     42 % 0.00 in 466.00 W/m2
11:12 58.2 °F 35.8 °F 29.96 in Calm     43 % 0.00 in 492.00 W/m2
11:17 58.4 °F 35.4 °F 29.97 in Calm     42 % 0.00 in 519.00 W/m2
11:22 58.6 °F 35.0 °F 29.96 in Calm     41 % 0.00 in 529.00 W/m2
11:32 59.2 °F 35.5 °F 29.96 in Calm     41 % 0.00 in 519.00 W/m2
11:37 59.4 °F 35.1 °F 29.97 in Calm     40 % 0.00 in 548.00 W/m2
11:42 59.6 °F 35.9 °F 29.97 in Calm     41 % 0.00 in 515.00 W/m2
11:47 59.8 °F 36.1 °F 29.97 in Calm     41 % 0.00 in 561.00 W/m2
11:52 60.0 °F 35.6 °F 29.97 in Calm   1.0 mph 40 % 0.00 in 561.00 W/m2
11:57 60.4 °F 35.3 °F 29.97 in Calm   1.0 mph 39 % 0.00 in 568.00 W/m2
12:02 60.5 °F 34.8 °F 29.97 in Calm   5.0 mph 38 % 0.00 in 575.00 W/m2
12:07 60.6 °F 34.9 °F 29.97 in ESE 1.0 mph 4.0 mph 38 % 0.00 in 577.00 W/m2
12:12 60.7 °F 34.3 °F 29.97 in North 1.0 mph 3.0 mph 37 % 0.00 in 596.00 W/m2
12:17 60.8 °F 34.4 °F 29.97 in Calm   2.0 mph 37 % 0.00 in 603.00 W/m2
12:22 60.9 °F 34.5 °F 29.97 in Calm   4.0 mph 37 % 0.00 in 591.00 W/m2
12:27 60.9 °F 34.5 °F 29.97 in NW 1.0 mph 3.0 mph 37 % 0.00 in 631.00 W/m2
12:32 60.9 °F 35.1 °F 29.97 in NW 2.0 mph 2.0 mph 38 % 0.00 in 485.00 W/m2
12:37 61.0 °F 34.6 °F 29.97 in Calm     37 % 0.00 in 452.00 W/m2
12:42 60.9 °F 34.5 °F 29.97 in Calm   2.0 mph 37 % 0.00 in 548.00 W/m2
12:47 60.9 °F 35.1 °F 29.97 in Calm   5.0 mph 38 % 0.00 in 504.00 W/m2
12:52 60.9 °F 35.1 °F 29.97 in Calm   3.0 mph 38 % 0.00 in 515.00 W/m2
12:57 61.1 °F 35.3 °F 29.97 in Calm   1.0 mph 38 % 0.00 in 461.00 W/m2
13:02 61.1 °F 35.3 °F 29.97 in Calm   3.0 mph 38 % 0.00 in 454.00 W/m2
13:07 61.3 °F 35.5 °F 29.97 in Calm   2.0 mph 38 % 0.00 in 501.00 W/m2
13:12 61.5 °F 35.7 °F 29.97 in WSW 1.0 mph 2.0 mph 38 % 0.00 in 550.00 W/m2
13:17 61.7 °F 35.9 °F 29.97 in Calm     38 % 0.00 in 564.00 W/m2
13:22 62.0 °F 36.1 °F 29.97 in NW 4.0 mph 4.0 mph 38 % 0.00 in 494.00 W/m2
13:27 61.9 °F 35.4 °F 29.97 in NW 5.0 mph 6.0 mph 37 % 0.00 in 480.00 W/m2
13:32 61.8 °F 35.3 °F 29.97 in Calm   1.0 mph 37 % 0.00 in 473.00 W/m2
13:37 61.7 °F 35.2 °F 29.97 in WNW 3.0 mph 3.0 mph 37 % 0.00 in 475.00 W/m2
13:38 61.7 °F 35.2 °F 29.97 in Calm   3.0 mph 37 % 0.00 in 475.00 W/m2
13:43 61.6 °F 35.8 °F 29.97 in Calm   5.0 mph 38 % 0.00 in 429.00 W/m2
13:48 61.6 °F 35.8 °F 29.97 in Calm     38 % 0.00 in 587.00 W/m2
13:53 61.6 °F 35.8 °F 29.97 in Calm   6.0 mph 38 % 0.00 in 343.00 W/m2
13:58 61.6 °F 35.8 °F 29.97 in Calm   2.0 mph 38 % 0.00 in 527.00 W/m2
14:03 61.6 °F 36.4 °F 29.97 in Calm   4.0 mph 39 % 0.00 in 526.00 W/m2
14:08 61.8 °F 36.6 °F 29.96 in Calm   6.0 mph 39 % 0.00 in 540.00 W/m2
14:13 61.7 °F 36.5 °F 29.96 in Calm   4.0 mph 39 % 0.00 in 459.00 W/m2
14:18 61.6 °F 36.4 °F 29.96 in Calm     39 % 0.00 in 496.00 W/m2
14:23 61.6 °F 36.4 °F 29.96 in Calm   4.0 mph 39 % 0.00 in 552.00 W/m2
14:28 61.5 °F 37.0 °F 29.97 in Calm   8.0 mph 40 % 0.00 in 554.00 W/m2
14:31 61.5 °F 37.0 °F 29.96 in West 8.0 mph 9.0 mph 40 % 0.00 in 629.00 W/m2
14:36 61.6 °F 36.4 °F 29.96 in Calm     39 % 0.00 in 394.00 W/m2
14:41 61.7 °F 36.5 °F 29.96 in Calm   4.0 mph 39 % 0.00 in 548.00 W/m2
14:46 61.8 °F 37.2 °F 29.97 in Calm   3.0 mph 40 % 0.00 in 413.00 W/m2
14:51 62.0 °F 36.8 °F 29.97 in Calm     39 % 0.00 in 478.00 W/m2
14:56 61.9 °F 36.7 °F 29.97 in Calm     39 % 0.00 in 429.00 W/m2
15:01 62.0 °F 36.1 °F 29.97 in Calm   5.0 mph 38 % 0.00 in 369.00 W/m2
15:06 62.0 °F 36.1 °F 29.97 in NNW 3.0 mph 9.0 mph 38 % 0.00 in 466.00 W/m2
15:11 62.0 °F 36.1 °F 29.97 in Calm     38 % 0.00 in 501.00 W/m2
15:16 62.0 °F 36.1 °F 29.97 in Calm   4.0 mph 38 % 0.00 in 494.00 W/m2
15:21 62.1 °F 36.2 °F 29.97 in NNW 8.0 mph 9.0 mph 38 % 0.00 in 388.00 W/m2
15:26 62.0 °F 36.8 °F 29.98 in Calm     39 % 0.00 in 325.00 W/m2
15:31 61.7 °F 35.9 °F 29.97 in NW 1.0 mph 9.0 mph 38 % 0.00 in 343.00 W/m2
15:36 61.6 °F 35.1 °F 29.98 in Calm   9.0 mph 37 % 0.00 in 278.00 W/m2
15:41 61.3 °F 35.5 °F 29.98 in Calm     38 % 0.00 in 276.00 W/m2
15:46 61.1 °F 33.3 °F 29.98 in NNW 1.0 mph 1.0 mph 35 % 0.00 in 267.00 W/m2
15:51 61.0 °F 32.5 °F 29.98 in Calm   5.0 mph 34 % 0.00 in 329.00 W/m2
15:56 60.9 °F 29.3 °F 29.98 in NNW 5.0 mph 6.0 mph 30 % 0.00 in 364.00 W/m2
16:01 61.0 °F 29.4 °F 29.98 in NNW 5.0 mph 8.0 mph 30 % 0.00 in 188.00 W/m2
16:06 61.0 °F 29.4 °F 29.98 in Calm     30 % 0.00 in 281.00 W/m2
16:11 61.0 °F 31.0 °F 29.98 in NNW 5.0 mph 5.0 mph 32 % 0.00 in 336.00 W/m2
16:16 61.0 °F 31.0 °F 29.98 in Calm     32 % 0.00 in 362.00 W/m2
16:21 61.1 °F 30.3 °F 29.99 in Calm   4.0 mph 31 % 0.00 in 334.00 W/m2
16:26 61.1 °F 26.9 °F 29.99 in Calm   2.0 mph 27 % 0.00 in 313.00 W/m2
16:31 61.2 °F 26.1 °F 29.99 in Calm   1.0 mph 26 % 0.00 in 297.00 W/m2
16:36 61.2 °F 23.1 °F 29.99 in NW 6.0 mph 6.0 mph 23 % 0.00 in 285.00 W/m2
16:41 61.3 °F 25.2 °F 29.99 in Calm     25 % 0.00 in 308.00 W/m2
16:46 61.3 °F 25.2 °F 29.99 in NNW 8.0 mph 10.0 mph 25 % 0.00 in 308.00 W/m2
16:51 61.3 °F 26.1 °F 29.99 in NNW 5.0 mph 5.0 mph 26 % 0.00 in 297.00 W/m2
16:56 61.4 °F 25.3 °F 29.99 in NW 3.0 mph 8.0 mph 25 % 0.00 in 279.00 W/m2
17:01 61.4 °F 24.3 °F 29.99 in Calm     24 % 0.00 in 250.00 W/m2
17:06 61.4 °F 23.3 °F 29.99 in Calm   4.0 mph 23 % 0.00 in 232.00 W/m2
17:11 61.4 °F 24.3 °F 29.99 in Calm   5.0 mph 24 % 0.00 in 216.00 W/m2
17:16 61.3 °F 23.2 °F 29.99 in NW 3.0 mph 8.0 mph 23 % 0.00 in 193.00 W/m2
17:22 61.1 °F 23.0 °F 29.99 in Calm   5.0 mph 23 % 0.00 in 172.00 W/m2
17:32 60.9 °F 22.9 °F 29.99 in Calm   4.0 mph 23 % 0.00 in 127.00 W/m2
17:37 60.8 °F 23.8 °F 29.99 in Calm     24 % 0.00 in 109.00 W/m2
17:41 60.7 °F 24.7 °F 29.99 in Calm   5.0 mph 25 % 0.00 in 97.00 W/m2
17:46 60.5 °F 25.5 °F 29.99 in Calm     26 % 0.00 in 79.00 W/m2
17:51 60.3 °F 25.3 °F 29.99 in Calm     26 % 0.00 in 63.00 W/m2
17:56 60.2 °F 26.1 °F 29.99 in Calm     27 % 0.00 in 49.00 W/m2
18:01 59.9 °F 26.7 °F 30.00 in Calm     28 % 0.00 in 39.00 W/m2
18:06 59.7 °F 26.6 °F 29.99 in Calm   6.0 mph 28 % 0.00 in 28.00 W/m2
18:11 59.5 °F 26.4 °F 30.00 in Calm     28 % 0.00 in 21.00 W/m2
18:16 59.3 °F 27.1 °F 30.00 in Calm     29 % 0.00 in 16.00 W/m2
18:21 59.0 °F 26.8 °F 30.00 in Calm     29 % 0.00 in 12.00 W/m2
18:26 58.7 °F 25.7 °F 30.00 in Calm     28 % 0.00 in 9.00 W/m2
18:31 58.2 °F 25.3 °F 30.00 in Calm     28 % 0.00 in 5.00 W/m2
18:36 57.4 °F 24.6 °F 30.00 in Calm     28 % 0.00 in 0.00 W/m2
18:41 56.6 °F 23.9 °F 30.00 in Calm     28 % 0.00 in 0.00 W/m2
18:46 55.9 °F 23.3 °F 30.00 in Calm     28 % 0.00 in 0.00 W/m2
18:51 55.1 °F 23.4 °F 30.00 in Calm     29 % 0.00 in 0.00 W/m2
18:56 54.5 °F 22.9 °F 30.00 in Calm   5.0 mph 29 % 0.00 in 0.00 W/m2
19:01 54.0 °F 23.3 °F 30.00 in Calm     30 % 0.00 in 0.00 W/m2
19:06 53.5 °F 22.0 °F 30.00 in Calm   4.0 mph 29 % 0.00 in 0.00 W/m2
19:11 53.1 °F 22.5 °F 30.01 in Calm   4.0 mph 30 % 0.00 in 0.00 W/m2
19:16 53.0 °F 22.4 °F 30.01 in Calm   6.0 mph 30 % 0.00 in 0.00 W/m2
19:21 53.0 °F 21.6 °F 30.01 in NNW 6.0 mph 6.0 mph 29 % 0.00 in 0.00 W/m2
19:26 53.0 °F 21.6 °F 30.01 in NNW 2.0 mph 4.0 mph 29 % 0.00 in 0.00 W/m2
19:32 53.0 °F 21.6 °F 30.01 in Calm     29 % 0.00 in 0.00 W/m2
19:37 53.0 °F 21.6 °F 30.01 in NNW 5.0 mph 6.0 mph 29 % 0.00 in 0.00 W/m2
19:42 53.0 °F 21.6 °F 30.01 in NNW 3.0 mph 4.0 mph 29 % 0.00 in 0.00 W/m2
19:47 52.9 °F 21.5 °F 30.01 in NNW 4.0 mph 5.0 mph 29 % 0.00 in 0.00 W/m2
19:52 52.8 °F 22.2 °F 30.01 in NNW 5.0 mph 5.0 mph 30 % 0.00 in 0.00 W/m2
19:57 52.7 °F 22.2 °F 30.01 in NNW 7.0 mph 7.0 mph 30 % 0.00 in 0.00 W/m2
20:02 52.6 °F 22.1 °F 30.01 in NNW 3.0 mph 5.0 mph 30 % 0.00 in 0.00 W/m2
20:07 52.5 °F 22.0 °F 30.01 in NNW 5.0 mph 5.0 mph 30 % 0.00 in 0.00 W/m2
20:14 52.4 °F 22.7 °F 30.01 in NNW 3.0 mph 6.0 mph 31 % 0.00 in 0.00 W/m2
20:19 52.3 °F 22.6 °F 30.01 in Calm   5.0 mph 31 % 0.00 in 0.00 W/m2
20:22 52.3 °F 23.3 °F 30.01 in North 6.0 mph 6.0 mph 32 % 0.00 in 0.00 W/m2
20:23 52.3 °F 23.3 °F 30.01 in Calm   6.0 mph 32 % 0.00 in 0.00 W/m2
20:28 52.2 °F 23.2 °F 30.02 in Calm   5.0 mph 32 % 0.00 in 0.00 W/m2
20:33 52.1 °F 23.2 °F 30.02 in North 1.0 mph 5.0 mph 32 % 0.00 in 0.00 W/m2
20:38 52.0 °F 23.8 °F 30.02 in North 4.0 mph 5.0 mph 33 % 0.00 in 0.00 W/m2
20:43 51.9 °F 23.7 °F 30.02 in Calm   1.0 mph 33 % 0.00 in 0.00 W/m2
20:48 51.8 °F 23.6 °F 30.02 in North 4.0 mph 4.0 mph 33 % 0.00 in 0.00 W/m2
20:53 51.5 °F 23.4 °F 30.02 in Calm   4.0 mph 33 % 0.00 in 0.00 W/m2
20:58 51.4 °F 23.3 °F 30.02 in Calm     33 % 0.00 in 0.00 W/m2
21:03 51.2 °F 23.8 °F 30.02 in North 5.0 mph 5.0 mph 34 % 0.00 in 0.00 W/m2
21:08 51.0 °F 23.6 °F 30.02 in Calm   5.0 mph 34 % 0.00 in 0.00 W/m2
21:13 50.7 °F 23.4 °F 30.02 in Calm   3.0 mph 34 % 0.00 in 0.00 W/m2
21:18 50.5 °F 23.2 °F 30.02 in Calm     34 % 0.00 in 0.00 W/m2
21:23 50.3 °F 23.0 °F 30.02 in Calm     34 % 0.00 in 0.00 W/m2
21:28 50.1 °F 23.5 °F 30.02 in Calm   4.0 mph 35 % 0.00 in 0.00 W/m2
21:33 49.9 °F 23.4 °F 30.02 in Calm   4.0 mph 35 % 0.00 in 0.00 W/m2
21:38 49.7 °F 23.2 °F 30.02 in Calm   3.0 mph 35 % 0.00 in 0.00 W/m2
21:43 49.6 °F 23.1 °F 30.02 in Calm   5.0 mph 35 % 0.00 in 0.00 W/m2
21:48 49.5 °F 23.0 °F 30.02 in Calm     35 % 0.00 in 0.00 W/m2
21:53 49.4 °F 23.6 °F 30.02 in Calm     36 % 0.00 in 0.00 W/m2
21:58 49.2 °F 23.4 °F 30.03 in Calm     36 % 0.00 in 0.00 W/m2
22:03 49.1 °F 23.3 °F 30.03 in Calm     36 % 0.00 in 0.00 W/m2
22:08 49.1 °F 24.0 °F 30.03 in Calm     37 % 0.00 in 0.00 W/m2
22:13 49.1 °F 24.0 °F 30.03 in NNE 2.0 mph 4.0 mph 37 % 0.00 in 0.00 W/m2
22:18 49.0 °F 23.9 °F 30.03 in NNE 2.0 mph 5.0 mph 37 % 0.00 in 0.00 W/m2
22:23 49.0 °F 23.9 °F 30.03 in ENE 3.0 mph 8.0 mph 37 % 0.00 in 0.00 W/m2
22:28 49.0 °F 23.9 °F 30.03 in Calm   6.0 mph 37 % 0.00 in 0.00 W/m2
22:33 49.0 °F 24.5 °F 30.03 in Calm   5.0 mph 38 % 0.00 in 0.00 W/m2
22:38 48.9 °F 25.0 °F 30.03 in East 2.0 mph 6.0 mph 39 % 0.00 in 0.00 W/m2
22:43 48.9 °F 25.0 °F 30.03 in Calm   8.0 mph 39 % 0.00 in 0.00 W/m2
22:48 48.9 °F 25.0 °F 30.03 in East 5.0 mph 8.0 mph 39 % 0.00 in 0.00 W/m2
22:54 48.9 °F 25.7 °F 30.03 in Calm   11.0 mph 40 % 0.00 in 0.00 W/m2
22:59 48.8 °F 25.6 °F 30.03 in Calm   11.0 mph 40 % 0.00 in 0.00 W/m2
23:04 48.8 °F 25.6 °F 30.03 in Calm   11.0 mph 40 % 0.00 in 0.00 W/m2
23:09 48.8 °F 25.6 °F 30.03 in East 4.0 mph 11.0 mph 40 % 0.00 in 0.00 W/m2
23:14 48.8 °F 26.2 °F 30.03 in ESE 4.0 mph 8.0 mph 41 % 0.00 in 0.00 W/m2
23:19 48.8 °F 26.2 °F 30.03 in East 5.0 mph 11.0 mph 41 % 0.00 in 0.00 W/m2
23:24 48.8 °F 25.6 °F 30.03 in Calm   8.0 mph 40 % 0.00 in 0.00 W/m2
23:29 48.9 °F 26.2 °F 30.03 in Calm   8.0 mph 41 % 0.00 in 0.00 W/m2
23:34 48.9 °F 26.2 °F 30.03 in Calm   8.0 mph 41 % 0.00 in 0.00 W/m2
23:39 48.9 °F 26.2 °F 30.03 in East 4.0 mph 6.0 mph 41 % 0.00 in 0.00 W/m2
23:44 49.0 °F 26.9 °F 30.03 in Calm   4.0 mph 42 % 0.00 in 0.00 W/m2
23:45 49.0 °F 26.9 °F 30.03 in East 4.0 mph 5.0 mph 42 % 0.00 in 0.00 W/m2
23:50 49.0 °F 26.9 °F 30.03 in Calm   5.0 mph 42 % 0.00 in 0.00 W/m2
23:55 49.0 °F 26.9 °F 30.03 in Calm   7.0 mph 42 % 0.00 in 0.00 W/m2
Juneau County Weather
Compliments of Weather Underground - 4.5 mb
 WU-history PHP script courtesy of   Juneau County Weather.
powered by Cumulus v1.9.3 (1059)
Ambient Weather VWS v14.00
Top Contact Website Map Copyright © 2007 - 2018 Foresthillweather.com Never base important decisions on this or any weather information obtained from the Internet